Location: Borojevi?i
(45.0486°N, 16.2297°E)
Time: 04:35:19
(UTC+00:00)

Cosmos 968 Rocket - Pass Details

Date: 08 August 2020
Orbit: 740 x 771 km, 74.0° (Epoch: 19 September)

Event Time Altitude Azimuth Distance (km) Brightness Sun altitude
Exits shadow 22:59:02 63° 4° (N) 829 3.8 -29.2°
Drops below altitude 10° 23:03:21 10° 20° (NNE) 2,265 6.8 -29.2°
Sets 23:05:43 0° 21° (NNE) 3,196 7.8 -29.2°
